Hourly Weather Racibórz

Today, 11 July, Saturday

Time Temperature Precipitation Wind Pressure Humidity
00:00 +19°C° 4.1 mm 4 mps 743 mmHg 95%
01:00 +19°C° 0 mm 4 mps 744 mmHg 95%
02:00 +19°C° 0.1 mm 3 mps 744 mmHg 95%
03:00 +18°C° 0.1 mm 3 mps 744 mmHg 95%
04:00 +18°C° 0.1 mm 3 mps 744 mmHg 95%
05:00 +18°C° 0 mm 4 mps 745 mmHg 94%
06:00 +17°C° 0 mm 4 mps 745 mmHg 93%
07:00 +15°C° 0 mm 5 mps 746 mmHg 88%
08:00 +15°C° 0.1 mm 5 mps 746 mmHg 88%
09:00 +14°C° 0.1 mm 5 mps 746 mmHg 89%
10:00 +14°C° 0.1 mm 5 mps 746 mmHg 89%
11:00 +14°C° 0.7 mm 5 mps 747 mmHg 90%
12:00 +13°C° 0.7 mm 4 mps 747 mmHg 91%
13:00 +13°C° 0.7 mm 4 mps 748 mmHg 92%
14:00 +12°C° 2.5 mm 3 mps 748 mmHg 93%
15:00 +12°C° 2.5 mm 3 mps 748 mmHg 93%
16:00 +13°C° 2.5 mm 2 mps 748 mmHg 94%
17:00 +13°C° 1.8 mm 2 mps 748 mmHg 94%
18:00 +13°C° 1.8 mm 2 mps 749 mmHg 94%
19:00 +13°C° 1.8 mm 1 mps 749 mmHg 94%
20:00 +13°C° 0.2 mm 1 mps 749 mmHg 94%
21:00 +13°C° 0.2 mm 1 mps 749 mmHg 94%
22:00 +13°C° 0.2 mm 1 mps 749 mmHg 94%
23:00 +12°C° 0 mm 1 mps 749 mmHg 94%

Tomorrow, 12 July, Sunday

Time Temperature Precipitation Wind Pressure Humidity
00:00 +12°C° 0 mm 1 mps 749 mmHg 93%
01:00 +12°C° 0 mm 1 mps 749 mmHg 93%
02:00 +11°C° 0 mm 1 mps 749 mmHg 93%
03:00 +11°C° 0 mm 1 mps 749 mmHg 93%
04:00 +11°C° 0 mm 1 mps 749 mmHg 93%
05:00 +12°C° 0 mm 1 mps 749 mmHg 88%
06:00 +13°C° 0 mm 2 mps 749 mmHg 84%
07:00 +15°C° 0 mm 2 mps 750 mmHg 79%
08:00 +16°C° 0.1 mm 2 mps 750 mmHg 74%
09:00 +17°C° 0.1 mm 3 mps 750 mmHg 69%
10:00 +19°C° 0.1 mm 3 mps 750 mmHg 64%
11:00 +19°C° 0.2 mm 4 mps 750 mmHg 62%
12:00 +20°C° 0.2 mm 4 mps 750 mmHg 61%
13:00 +20°C° 0.2 mm 4 mps 750 mmHg 59%
14:00 +20°C° 0.1 mm 4 mps 750 mmHg 60%
15:00 +20°C° 0.1 mm 4 mps 750 mmHg 61%
16:00 +20°C° 0.1 mm 4 mps 749 mmHg 62%
17:00 +19°C° 0.1 mm 3 mps 749 mmHg 67%
18:00 +18°C° 0.1 mm 3 mps 749 mmHg 72%
19:00 +17°C° 0.1 mm 2 mps 749 mmHg 77%
20:00 +16°C° 0 mm 2 mps 750 mmHg 78%
21:00 +15°C° 0 mm 2 mps 750 mmHg 79%
22:00 +13°C° 0 mm 1 mps 750 mmHg 80%
23:00 +13°C° 0 mm 1 mps 750 mmHg 81%

Day after tomorrow, 13 July, Monday

Time Temperature Precipitation Wind Pressure Humidity
00:00 +13°C° 0 mm 1 mps 750 mmHg 82%
01:00 +12°C° 0 mm 1 mps 750 mmHg 83%
02:00 +12°C° 0 mm 1 mps 750 mmHg 84%
03:00 +11°C° 0 mm 1 mps 750 mmHg 84%
04:00 +11°C° 0 mm 1 mps 750 mmHg 85%
05:00 +13°C° 0 mm 1 mps 750 mmHg 80%
06:00 +14°C° 0 mm 1 mps 750 mmHg 76%
07:00 +16°C° 0 mm 1 mps 750 mmHg 72%
08:00 +18°C° 0 mm 1 mps 750 mmHg 66%
09:00 +18°C° 0 mm 2 mps 749 mmHg 60%
10:00 +20°C° 0 mm 2 mps 749 mmHg 54%
11:00 +20°C° 0 mm 2 mps 749 mmHg 54%
12:00 +21°C° 0 mm 2 mps 749 mmHg 53%
13:00 +21°C° 0 mm 2 mps 748 mmHg 52%
14:00 +21°C° 0 mm 2 mps 748 mmHg 54%
15:00 +21°C° 0 mm 2 mps 748 mmHg 56%
16:00 +21°C° 0 mm 2 mps 747 mmHg 57%
17:00 +20°C° 0 mm 2 mps 747 mmHg 62%
18:00 +19°C° 0 mm 2 mps 747 mmHg 66%
19:00 +19°C° 0 mm 1 mps 747 mmHg 71%
20:00 +18°C° 0 mm 1 mps 747 mmHg 74%
21:00 +15°C° 0 mm 1 mps 747 mmHg 77%
22:00 +14°C° 0 mm 1 mps 747 mmHg 80%
23:00 +14°C° 0 mm 1 mps 747 mmHg 81%

14 July, Tuesday

Time Temperature Precipitation Wind Pressure Humidity
00:00 +12°C° 0 mm 0 mps 747 mmHg 82%
01:00 +12°C° 0 mm 0 mps 747 mmHg 84%
02:00 +12°C° 0 mm 0 mps 747 mmHg 84%
03:00 +11°C° 0 mm 0 mps 746 mmHg 85%
04:00 +11°C° 0 mm 0 mps 746 mmHg 86%
05:00 +13°C° 0 mm 0 mps 746 mmHg 81%
06:00 +14°C° 0 mm 0 mps 746 mmHg 77%
07:00 +18°C° 0 mm 1 mps 746 mmHg 72%
08:00 +19°C° 0 mm 1 mps 746 mmHg 67%
09:00 +21°C° 0 mm 1 mps 746 mmHg 62%
10:00 +22°C° 0 mm 1 mps 746 mmHg 57%
11:00 +23°C° 0 mm 1 mps 745 mmHg 53%
12:00 +24°C° 0 mm 1 mps 745 mmHg 50%
13:00 +23°C° 0 mm 0 mps 745 mmHg 46%
14:00 +23°C° 0 mm 0 mps 745 mmHg 46%
15:00 +25°C° 0 mm 1 mps 744 mmHg 46%
16:00 +25°C° 0 mm 1 mps 744 mmHg 45%
17:00 +24°C° 0 mm 1 mps 744 mmHg 52%
18:00 +23°C° 0 mm 1 mps 744 mmHg 58%
19:00 +22°C° 0 mm 1 mps 744 mmHg 64%
20:00 +20°C° 0 mm 1 mps 744 mmHg 66%
21:00 +19°C° 0 mm 1 mps 744 mmHg 69%
22:00 +18°C° 0 mm 1 mps 744 mmHg 71%
23:00 +18°C° 0 mm 1 mps 744 mmHg 73%

15 July, Wednesday

Time Temperature Precipitation Wind Pressure Humidity
00:00 +16°C° 0 mm 1 mps 744 mmHg 75%
01:00 +16°C° 0 mm 1 mps 744 mmHg 77%
02:00 +16°C° 0 mm 1 mps 744 mmHg 78%
03:00 +15°C° 0 mm 1 mps 743 mmHg 78%
04:00 +15°C° 0 mm 2 mps 743 mmHg 79%
05:00 +17°C° 0 mm 2 mps 743 mmHg 76%
06:00 +18°C° 0 mm 2 mps 743 mmHg 73%
07:00 +20°C° 0 mm 3 mps 743 mmHg 70%
08:00 +21°C° 0 mm 3 mps 743 mmHg 65%
09:00 +22°C° 0 mm 4 mps 743 mmHg 60%
10:00 +25°C° 0 mm 4 mps 743 mmHg 55%
11:00 +25°C° 0 mm 4 mps 742 mmHg 55%
12:00 +26°C° 0 mm 5 mps 742 mmHg 55%
13:00 +26°C° 0 mm 5 mps 742 mmHg 55%
14:00 +26°C° 0.2 mm 5 mps 742 mmHg 57%
15:00 +26°C° 0.2 mm 5 mps 741 mmHg 59%
16:00 +25°C° 0.2 mm 5 mps 741 mmHg 60%
17:00 +23°C° 0.4 mm 4 mps 741 mmHg 66%
18:00 +22°C° 0.4 mm 3 mps 741 mmHg 72%
19:00 +21°C° 0.4 mm 3 mps 741 mmHg 78%
20:00 +20°C° 0.1 mm 2 mps 742 mmHg 79%
21:00 +20°C° 0.1 mm 2 mps 742 mmHg 80%
22:00 +19°C° 0.1 mm 2 mps 742 mmHg 80%
23:00 +18°C° 0.1 mm 2 mps 742 mmHg 83%

16 July, Thursday

Time Temperature Precipitation Wind Pressure Humidity
00:00 +18°C° 0.1 mm 2 mps 742 mmHg 85%
01:00 +17°C° 0.1 mm 2 mps 742 mmHg 87%
02:00 +17°C° 0.1 mm 2 mps 742 mmHg 88%
03:00 +18°C° 0.1 mm 1 mps 742 mmHg 90%
04:00 +16°C° 0.1 mm 1 mps 742 mmHg 91%
05:00 +18°C° 0.1 mm 1 mps 743 mmHg 88%
06:00 +18°C° 0.1 mm 1 mps 743 mmHg 86%
07:00 +18°C° 0.1 mm 1 mps 743 mmHg 83%
08:00 +18°C° 0.5 mm 1 mps 743 mmHg 84%
09:00 +17°C° 0.5 mm 2 mps 743 mmHg 85%
10:00 +17°C° 0.5 mm 2 mps 743 mmHg 86%
11:00 +19°C° 0.5 mm 2 mps 743 mmHg 81%
12:00 +20°C° 0.5 mm 2 mps 742 mmHg 76%
13:00 +21°C° 0.5 mm 2 mps 742 mmHg 71%
14:00 +20°C° 0.3 mm 2 mps 742 mmHg 71%
15:00 +20°C° 0.3 mm 2 mps 742 mmHg 72%
16:00 +20°C° 0.3 mm 2 mps 742 mmHg 72%
17:00 +20°C° 0.2 mm 2 mps 742 mmHg 76%
18:00 +19°C° 0.2 mm 2 mps 742 mmHg 79%
19:00 +18°C° 0.2 mm 2 mps 742 mmHg 83%
20:00 +17°C° 0 mm 2 mps 742 mmHg 84%
21:00 +16°C° 0 mm 2 mps 743 mmHg 86%
22:00 +16°C° 0 mm 2 mps 743 mmHg 87%
23:00 +15°C° 0 mm 2 mps 743 mmHg 87%
Show more